PAL453 RPLL-RPMR

Flight info

Callsign PAL453
Flight time 1h 22m
Altitude 37000
Route VERDE2R VERDE A461 TAPAP/N0478F390 A461 SAJ W3 IOO B472 COT W19 MELBY MELBY3R
Aircraft B77W/H-SDE1E2E3FGHIJ2J3J4J5M1RWXY/LB1D1

Departure

Time 2026-04-16 22:50
Airport Ninoy Aquino International Airport (RPLL)

Arrival

Time 2026-04-17 00:13
Airport General Santos International Airport (RPMR)
Time Latitude Longitude Altitude Speed Heading
2026-04-16 22:37 14.50477 121.00404 88 ft 0 kts 120°
2026-04-16 22:42 14.50481 121.00397 88 ft 2 kts 115°
2026-04-16 22:43 14.50486 121.00382 88 ft 2 kts 99°
2026-04-16 22:43 14.50487 121.00365 88 ft 2 kts 87°
2026-04-16 22:43 14.50485 121.00349 88 ft 2 kts 74°
2026-04-16 22:43 14.50479 121.00334 88 ft 2 kts 68°
2026-04-16 22:44 14.50475 121.00319 88 ft 2 kts 87°
2026-04-16 22:44 14.50476 121.00303 88 ft 2 kts 105°
2026-04-16 22:44 14.50482 121.00288 88 ft 2 kts 121°
2026-04-16 22:44 14.50492 121.00275 88 ft 2 kts 137°
2026-04-16 22:45 14.50499 121.00269 88 ft 0 kts 145°
2026-04-16 22:46 14.50494 121.00272 88 ft 4 kts 147°
2026-04-16 22:47 14.50419 121.00288 88 ft 14 kts 182°
2026-04-16 22:47 14.50320 121.00281 88 ft 14 kts 185°
2026-04-16 22:47 14.50250 121.00286 88 ft 9 kts 162°
2026-04-16 22:47 14.50179 121.00324 88 ft 10 kts 151°
2026-04-16 22:48 14.50116 121.00313 88 ft 9 kts 229°
2026-04-16 22:48 14.50066 121.00233 88 ft 22 kts 240°
2026-04-16 22:48 14.49972 121.00063 88 ft 27 kts 241°
2026-04-16 22:48 14.49903 120.99976 88 ft 13 kts 193°
2026-04-16 22:49 14.49821 121.00003 88 ft 12 kts 134°
2026-04-16 22:49 14.49822 121.00079 88 ft 11 kts 64°
2026-04-16 22:49 14.49902 121.00223 88 ft 52 kts 60°
2026-04-16 22:49 14.50222 121.00800 88 ft 131 kts 60°
2026-04-16 22:50 14.50774 121.01792 289 ft 177 kts 63°
2026-04-16 22:50 14.51354 121.02902 1157 ft 180 kts 64°
2026-04-16 22:50 14.51988 121.04037 1862 ft 192 kts 61°
2026-04-16 22:50 14.52690 121.05258 2512 ft 207 kts 62°
2026-04-16 22:51 14.53429 121.06583 3221 ft 222 kts 62°
2026-04-16 22:51 14.54216 121.08003 3932 ft 238 kts 62°
2026-04-16 22:51 14.55060 121.09525 4645 ft 254 kts 62°
2026-04-16 22:51 14.55892 121.11179 5325 ft 269 kts 72°
2026-04-16 22:52 14.56118 121.13065 6067 ft 278 kts 97°
2026-04-16 22:52 14.55512 121.14945 6927 ft 282 kts 122°
2026-04-16 22:52 14.54266 121.16506 7770 ft 287 kts 135°
2026-04-16 22:52 14.52760 121.17852 8603 ft 291 kts 143°
2026-04-16 22:53 14.51039 121.18954 9408 ft 295 kts 153°
2026-04-16 22:53 14.49116 121.19783 10131 ft 301 kts 161°
2026-04-16 22:53 14.47051 121.20315 10617 ft 316 kts 170°
2026-04-16 22:53 14.44799 121.20523 11020 ft 333 kts 179°
2026-04-16 22:54 14.42442 121.20339 11404 ft 349 kts 189°
2026-04-16 22:54 14.40024 121.19704 11764 ft 365 kts 199°
2026-04-16 22:54 14.37678 121.18588 12095 ft 380 kts 210°
2026-04-16 22:54 14.35492 121.16977 12384 ft 395 kts 220°
2026-04-16 22:55 14.33565 121.14858 12631 ft 410 kts 232°
2026-04-16 22:55 14.31925 121.12391 12866 ft 423 kts 235°
2026-04-16 22:55 14.30302 121.10000 13234 ft 429 kts 233°
2026-04-16 22:55 14.28469 121.07534 13694 ft 432 kts 229°
2026-04-16 22:56 14.26328 121.05342 14108 ft 435 kts 219°
2026-04-16 22:56 14.23907 121.03451 14507 ft 438 kts 215°
2026-04-16 22:56 14.21402 121.01604 14908 ft 441 kts 215°
2026-04-16 22:56 14.18901 120.99786 15285 ft 444 kts 214°
2026-04-16 22:57 14.16333 120.97938 15635 ft 448 kts 214°
2026-04-16 22:57 14.13770 120.96105 15973 ft 451 kts 214°
2026-04-16 22:57 14.11170 120.94263 16307 ft 454 kts 212°
2026-04-16 22:57 14.08380 120.92687 16618 ft 456 kts 203°
2026-04-16 22:58 14.05393 120.91589 16901 ft 459 kts 194°
2026-04-16 22:58 14.02314 120.91000 17176 ft 461 kts 185°
2026-04-16 22:58 13.99168 120.90916 17452 ft 463 kts 176°
2026-04-16 22:58 13.95933 120.91369 17729 ft 465 kts 167°
2026-04-16 22:59 13.92801 120.92168 17999 ft 466 kts 165°
2026-04-16 22:59 13.89610 120.93021 18256 ft 469 kts 165°
2026-04-16 22:59 13.86423 120.93865 18502 ft 471 kts 165°
2026-04-16 22:59 13.83222 120.94705 18739 ft 473 kts 165°
2026-04-16 23:00 13.80041 120.95535 18963 ft 475 kts 165°
2026-04-16 23:00 13.76812 120.96373 19174 ft 478 kts 165°
2026-04-16 23:00 13.73569 120.97211 19366 ft 480 kts 165°
2026-04-16 23:00 13.70311 120.98051 19555 ft 482 kts 165°
2026-04-16 23:01 13.67001 120.98903 19758 ft 484 kts 166°
2026-04-16 23:01 13.63870 120.99706 20009 ft 486 kts 166°
2026-04-16 23:01 13.60611 121.00542 20253 ft 489 kts 166°
2026-04-16 23:01 13.57297 121.01392 20482 ft 492 kts 166°
2026-04-16 23:02 13.53944 121.02251 20715 ft 494 kts 166°
2026-04-16 23:02 13.50551 121.02959 20954 ft 497 kts 172°
2026-04-16 23:02 13.47094 121.03193 21204 ft 500 kts 178°
2026-04-16 23:02 13.43574 121.03243 21460 ft 501 kts 179°
2026-04-16 23:03 13.40091 121.03277 21703 ft 503 kts 179°
2026-04-16 23:03 13.36514 121.03311 21949 ft 505 kts 179°
2026-04-16 23:03 13.32963 121.03345 22192 ft 507 kts 179°
2026-04-16 23:03 13.29434 121.03379 22437 ft 509 kts 179°
2026-04-16 23:04 13.25871 121.03413 22705 ft 511 kts 179°
2026-04-16 23:04 13.22295 121.03449 22966 ft 512 kts 179°
2026-04-16 23:04 13.18674 121.03484 23208 ft 515 kts 179°
2026-04-16 23:04 13.15070 121.03519 23439 ft 518 kts 179°
2026-04-16 23:05 13.11465 121.03555 23671 ft 520 kts 179°
2026-04-16 23:05 13.07814 121.03591 23906 ft 522 kts 179°
2026-04-16 23:05 13.04343 121.03625 24126 ft 525 kts 179°
2026-04-16 23:05 13.00674 121.03661 24354 ft 527 kts 179°
2026-04-16 23:06 12.96972 121.03698 24580 ft 529 kts 179°
2026-04-16 23:06 12.95105 121.03716 32510 ft 529 kts 179°
2026-04-16 23:06 12.91488 121.03752 32993 ft 518 kts 179°
2026-04-16 23:06 12.87859 121.03788 33702 ft 510 kts 179°
2026-04-16 23:07 12.84331 121.03823 34484 ft 503 kts 179°
2026-04-16 23:07 12.80803 121.03858 35204 ft 499 kts 179°
2026-04-16 23:07 12.77319 121.03893 35732 ft 496 kts 179°
2026-04-16 23:07 12.73871 121.03928 36095 ft 496 kts 179°
2026-04-16 23:08 12.70415 121.03962 36344 ft 498 kts 179°
2026-04-16 23:08 12.66927 121.03996 36561 ft 499 kts 178°
2026-04-16 23:08 12.63463 121.04031 36971 ft 501 kts 178°
2026-04-16 23:08 12.59927 121.04066 37057 ft 501 kts 178°
2026-04-16 23:09 12.53007 121.04134 37043 ft 495 kts 178°
2026-04-16 23:09 12.46098 121.04202 36928 ft 494 kts 178°
2026-04-16 23:10 12.39272 121.05048 36914 ft 492 kts 163°
2026-04-16 23:10 12.33016 121.07813 36907 ft 490 kts 147°
2026-04-16 23:11 12.27731 121.12183 36920 ft 490 kts 136°
2026-04-16 23:11 12.22729 121.16994 36936 ft 490 kts 136°
2026-04-16 23:12 12.17768 121.21755 36938 ft 489 kts 136°
2026-04-16 23:12 12.12809 121.26505 36933 ft 488 kts 136°
2026-04-16 23:13 12.07854 121.31242 36924 ft 488 kts 136°
2026-04-16 23:13 12.02850 121.36022 36916 ft 488 kts 136°
2026-04-16 23:14 11.97977 121.40672 36912 ft 488 kts 136°
2026-04-16 23:14 11.93008 121.45413 36914 ft 487 kts 136°
2026-04-16 23:15 11.85583 121.52490 36914 ft 487 kts 136°
2026-04-16 23:16 11.80640 121.57198 36913 ft 486 kts 136°
2026-04-16 23:16 11.75699 121.61903 36914 ft 486 kts 136°
2026-04-16 23:17 11.70852 121.66515 36916 ft 486 kts 136°
2026-04-16 23:17 11.65884 121.71239 36917 ft 486 kts 136°
2026-04-16 23:18 11.60943 121.75935 36917 ft 486 kts 136°
2026-04-16 23:18 11.56136 121.80501 36917 ft 486 kts 136°
2026-04-16 23:19 11.51247 121.85143 36916 ft 486 kts 136°
2026-04-16 23:19 11.46281 121.89856 36916 ft 486 kts 136°
2026-04-16 23:20 11.41335 121.94549 36916 ft 486 kts 136°
2026-04-16 23:20 11.36351 121.99276 36916 ft 486 kts 136°
2026-04-16 23:21 11.31390 122.03979 36922 ft 487 kts 136°
2026-04-16 23:21 11.26425 122.08683 36939 ft 487 kts 136°
2026-04-16 23:22 11.21457 122.13387 36961 ft 486 kts 136°
2026-04-16 23:22 11.16498 122.18081 36991 ft 486 kts 136°
2026-04-16 23:23 11.11553 122.22759 36903 ft 487 kts 136°
2026-04-16 23:23 11.09047 122.25128 36788 ft 486 kts 136°
2026-04-16 23:23 11.06593 122.27448 36703 ft 484 kts 136°
2026-04-16 23:24 11.01622 122.32144 36816 ft 486 kts 136°
2026-04-16 23:24 10.96656 122.36831 36971 ft 487 kts 136°
2026-04-16 23:25 10.91774 122.41436 36972 ft 487 kts 136°
2026-04-16 23:25 10.86817 122.46110 36943 ft 486 kts 136°
2026-04-16 23:26 10.81328 122.50182 36925 ft 488 kts 151°
2026-04-16 23:26 10.75186 122.53159 36916 ft 488 kts 154°
2026-04-16 23:27 10.69047 122.56063 36913 ft 488 kts 154°
2026-04-16 23:27 10.62834 122.59001 36915 ft 488 kts 154°
2026-04-16 23:28 10.56664 122.61918 36915 ft 489 kts 154°
2026-04-16 23:28 10.50469 122.64846 36913 ft 489 kts 154°
2026-04-16 23:29 10.44281 122.67769 36916 ft 489 kts 154°
2026-04-16 23:29 10.38098 122.70688 36916 ft 489 kts 154°
2026-04-16 23:30 10.31867 122.73628 36916 ft 489 kts 154°
2026-04-16 23:30 10.25810 122.76485 36915 ft 489 kts 154°
2026-04-16 23:31 10.19623 122.79401 36917 ft 489 kts 154°
2026-04-16 23:31 10.13424 122.82323 36925 ft 489 kts 154°
2026-04-16 23:32 10.07220 122.85246 36937 ft 489 kts 154°
2026-04-16 23:32 10.01047 122.88152 36955 ft 489 kts 154°
2026-04-16 23:33 9.94858 122.91066 36975 ft 489 kts 154°
2026-04-16 23:33 9.88617 122.94003 36995 ft 489 kts 154°
2026-04-16 23:34 9.82421 122.96917 36935 ft 489 kts 154°
2026-04-16 23:34 9.76222 122.99831 36830 ft 489 kts 154°
2026-04-16 23:35 9.70028 123.02742 36862 ft 489 kts 154°
2026-04-16 23:35 9.63841 123.05650 36974 ft 490 kts 154°
2026-04-16 23:36 9.57868 123.08455 36972 ft 489 kts 154°
2026-04-16 23:36 9.51646 123.11375 36956 ft 489 kts 154°
2026-04-16 23:37 9.45460 123.14279 36947 ft 489 kts 154°
2026-04-16 23:37 9.39276 123.17180 36939 ft 489 kts 154°
2026-04-16 23:38 9.33100 123.20076 36937 ft 489 kts 154°
2026-04-16 23:38 9.26913 123.22976 36939 ft 489 kts 154°
2026-04-16 23:39 9.20696 123.25889 36935 ft 489 kts 154°
2026-04-16 23:39 9.14519 123.28780 36927 ft 489 kts 154°
2026-04-16 23:40 9.08318 123.31685 36922 ft 489 kts 154°
2026-04-16 23:40 9.02148 123.34574 36917 ft 489 kts 154°
2026-04-16 23:41 8.95929 123.37485 36914 ft 489 kts 154°
2026-04-16 23:41 8.89745 123.40379 36914 ft 489 kts 154°
2026-04-16 23:42 8.83537 123.43282 36916 ft 489 kts 154°
2026-04-16 23:42 8.77346 123.46176 36916 ft 489 kts 154°
2026-04-16 23:43 8.71137 123.49078 36916 ft 489 kts 154°
2026-04-16 23:43 8.64915 123.51984 36918 ft 489 kts 154°
2026-04-16 23:44 8.58762 123.54858 36919 ft 489 kts 154°
2026-04-16 23:44 8.52538 123.57763 36921 ft 489 kts 154°
2026-04-16 23:45 8.46387 123.60633 36923 ft 489 kts 154°
2026-04-16 23:45 8.40161 123.63538 36929 ft 488 kts 154°
2026-04-16 23:46 8.33979 123.66421 36939 ft 488 kts 154°
2026-04-16 23:46 8.27804 123.69299 36947 ft 488 kts 154°
2026-04-16 23:47 8.21604 123.72189 36950 ft 488 kts 154°
2026-04-16 23:47 8.15384 123.75087 36937 ft 488 kts 154°
2026-04-16 23:48 8.09230 123.77953 36928 ft 488 kts 154°
2026-04-16 23:48 8.03049 123.80830 36922 ft 488 kts 154°
2026-04-16 23:49 7.96826 123.83726 36924 ft 488 kts 154°
2026-04-16 23:49 7.90870 123.86496 36934 ft 488 kts 154°
2026-04-16 23:50 7.84673 123.89378 36946 ft 488 kts 154°
2026-04-16 23:50 7.78506 123.92245 36590 ft 479 kts 154°
2026-04-16 23:50 7.75470 123.93656 35719 ft 486 kts 154°
2026-04-16 23:51 7.72373 123.95096 34707 ft 493 kts 154°
2026-04-16 23:51 7.69291 123.96528 33795 ft 495 kts 154°
2026-04-16 23:51 7.66145 123.97990 32655 ft 495 kts 154°
2026-04-16 23:51 7.63007 123.99446 31645 ft 493 kts 154°
2026-04-16 23:52 7.59915 124.00882 30736 ft 490 kts 154°
2026-04-16 23:52 7.56970 124.02249 29889 ft 488 kts 154°
2026-04-16 23:52 7.53863 124.03692 29040 ft 485 kts 154°
2026-04-16 23:52 7.50830 124.05100 28315 ft 484 kts 154°
2026-04-16 23:53 7.47717 124.06544 27616 ft 490 kts 154°
2026-04-16 23:53 7.44618 124.07982 26929 ft 487 kts 154°
2026-04-16 23:53 7.41565 124.09398 26300 ft 481 kts 154°
2026-04-16 23:53 7.38524 124.10809 25668 ft 476 kts 154°
2026-04-16 23:54 7.35532 124.12196 25043 ft 472 kts 154°
2026-04-16 23:54 7.32533 124.13587 24411 ft 469 kts 154°
2026-04-16 23:54 7.29601 124.14947 23811 ft 467 kts 154°
2026-04-16 23:54 7.26632 124.16323 23207 ft 464 kts 154°
2026-04-16 23:55 7.23692 124.17687 22605 ft 461 kts 154°
2026-04-16 23:55 7.20811 124.19022 22011 ft 458 kts 154°
2026-04-16 23:55 7.17919 124.20406 21407 ft 455 kts 150°
2026-04-16 23:55 7.15290 124.22109 20806 ft 450 kts 142°
2026-04-16 23:56 7.12835 124.24060 20233 ft 446 kts 140°
2026-04-16 23:56 7.10405 124.26035 19672 ft 444 kts 140°
2026-04-16 23:56 7.08027 124.27965 19128 ft 441 kts 140°
2026-04-16 23:56 7.05637 124.29904 18578 ft 437 kts 140°
2026-04-16 23:57 7.03289 124.31808 18032 ft 433 kts 140°
2026-04-16 23:57 7.00932 124.33719 17482 ft 430 kts 140°
2026-04-16 23:57 6.98604 124.35606 16936 ft 427 kts 140°
2026-04-16 23:57 6.96305 124.37467 16393 ft 424 kts 140°
2026-04-16 23:58 6.94030 124.39310 15849 ft 420 kts 140°
2026-04-16 23:58 6.91746 124.41161 15308 ft 417 kts 140°
2026-04-16 23:58 6.89477 124.42999 14818 ft 414 kts 140°
2026-04-16 23:58 6.87233 124.44813 14334 ft 413 kts 140°
2026-04-16 23:59 6.84997 124.46624 13849 ft 410 kts 140°
2026-04-16 23:59 6.82772 124.48425 13366 ft 408 kts 140°
2026-04-16 23:59 6.80568 124.50210 12911 ft 405 kts 140°
2026-04-16 23:59 6.78395 124.51968 12534 ft 405 kts 140°
2026-04-17 00:00 6.76198 124.53745 12161 ft 395 kts 140°
2026-04-17 00:00 6.74092 124.55448 11799 ft 384 kts 140°
2026-04-17 00:00 6.72022 124.57123 11436 ft 377 kts 140°
2026-04-17 00:00 6.69982 124.58773 11075 ft 374 kts 140°
2026-04-17 00:01 6.67945 124.60420 10712 ft 374 kts 140°
2026-04-17 00:01 6.65923 124.62042 10350 ft 372 kts 141°
2026-04-17 00:01 6.63988 124.63511 10081 ft 361 kts 142°
2026-04-17 00:01 6.62022 124.64992 10040 ft 343 kts 142°
2026-04-17 00:02 6.60157 124.66398 10038 ft 326 kts 142°
2026-04-17 00:02 6.58387 124.67736 10040 ft 309 kts 142°
2026-04-17 00:02 6.56685 124.69025 10049 ft 300 kts 142°
2026-04-17 00:02 6.55015 124.70290 9910 ft 300 kts 142°
2026-04-17 00:03 6.53351 124.71553 9620 ft 298 kts 142°
2026-04-17 00:03 6.51689 124.72813 9272 ft 297 kts 142°
2026-04-17 00:03 6.50048 124.74058 8921 ft 296 kts 142°
2026-04-17 00:03 6.48402 124.75306 8567 ft 296 kts 142°
2026-04-17 00:04 6.46737 124.76569 8208 ft 295 kts 142°
2026-04-17 00:04 6.45101 124.77809 7869 ft 294 kts 142°
2026-04-17 00:04 6.43468 124.79047 7559 ft 292 kts 142°
2026-04-17 00:04 6.41847 124.80276 7252 ft 290 kts 142°
2026-04-17 00:05 6.40228 124.81506 6944 ft 289 kts 142°
2026-04-17 00:05 6.38706 124.82783 6627 ft 286 kts 131°
2026-04-17 00:05 6.37489 124.84347 6323 ft 283 kts 124°
2026-04-17 00:05 6.36362 124.85957 6122 ft 277 kts 124°
2026-04-17 00:06 6.35256 124.87549 6012 ft 275 kts 124°
2026-04-17 00:06 6.34168 124.89108 5783 ft 272 kts 124°
2026-04-17 00:06 6.33081 124.90661 5545 ft 270 kts 124°
2026-04-17 00:06 6.32036 124.92156 5314 ft 268 kts 124°
2026-04-17 00:07 6.30969 124.93677 5077 ft 266 kts 124°
2026-04-17 00:07 6.29903 124.95200 4839 ft 265 kts 124°
2026-04-17 00:07 6.28844 124.96712 4600 ft 264 kts 124°
2026-04-17 00:07 6.27814 124.98246 4351 ft 262 kts 116°
2026-04-17 00:08 6.27146 124.99941 4125 ft 260 kts 107°
2026-04-17 00:08 6.26609 125.01698 3928 ft 260 kts 105°
2026-04-17 00:08 6.26093 125.03412 3737 ft 259 kts 106°
2026-04-17 00:08 6.25542 125.05157 3536 ft 259 kts 111°
2026-04-17 00:09 6.24501 125.06609 3331 ft 259 kts 141°
2026-04-17 00:09 6.22897 125.07382 3270 ft 248 kts 165°
2026-04-17 00:09 6.21244 125.07707 3220 ft 239 kts 171°
2026-04-17 00:09 6.19610 125.07931 3037 ft 234 kts 173°
2026-04-17 00:10 6.18105 125.08116 2822 ft 229 kts 173°
2026-04-17 00:10 6.16573 125.08297 2561 ft 227 kts 173°
2026-04-17 00:10 6.15010 125.08472 2253 ft 221 kts 173°
2026-04-17 00:10 6.13549 125.08668 1988 ft 203 kts 172°
2026-04-17 00:11 6.12165 125.08843 1573 ft 200 kts 173°
2026-04-17 00:11 6.10824 125.08989 1350 ft 178 kts 172°
2026-04-17 00:11 6.09630 125.09154 1053 ft 168 kts 172°
2026-04-17 00:11 6.08460 125.09290 815 ft 168 kts 173°
2026-04-17 00:12 6.07314 125.09435 587 ft 163 kts 173°
2026-04-17 00:12 6.06283 125.09563 540 ft 138 kts 174°
2026-04-17 00:12 6.05471 125.09659 541 ft 93 kts 173°
2026-04-17 00:12 6.04918 125.09727 541 ft 71 kts 173°
2026-04-17 00:13 6.04626 125.09761 542 ft 21 kts 172°
2026-04-17 00:13 6.04523 125.09788 543 ft 12 kts 130°
2026-04-17 00:13 6.04511 125.09873 542 ft 12 kts 84°
2026-04-17 00:13 6.04514 125.09922 542 ft 1 kts 98°
2026-04-17 00:14 6.04504 125.09934 542 ft 3 kts 143°
2026-04-17 00:14 6.04465 125.09948 542 ft 7 kts 175°
2026-04-17 00:14 6.04412 125.09942 542 ft 5 kts 214°
2026-04-17 00:14 6.04393 125.09890 542 ft 11 kts 263°
2026-04-17 00:15 6.04408 125.09811 543 ft 11 kts 313°
2026-04-17 00:15 6.04495 125.09778 543 ft 17 kts 352°
2026-04-17 00:15 6.04640 125.09759 543 ft 27 kts 353°
2026-04-17 00:15 6.04885 125.09730 543 ft 36 kts 353°
2026-04-17 00:16 6.05129 125.09700 543 ft 34 kts 353°
2026-04-17 00:16 6.05323 125.09676 543 ft 11 kts 353°
2026-04-17 00:16 6.05388 125.09696 542 ft 10 kts 58°
2026-04-17 00:16 6.05407 125.09770 542 ft 13 kts 83°
2026-04-17 00:17 6.05417 125.09858 542 ft 7 kts 84°
2026-04-17 00:17 6.05428 125.09892 542 ft 5 kts 46°
2026-04-17 00:17 6.05439 125.09901 542 ft 0 kts 33°
2026-04-17 00:17 6.05478 125.09907 542 ft 10 kts 354°
2026-04-17 00:18 6.05569 125.09897 542 ft 17 kts 353°
2026-04-17 00:18 6.05665 125.09885 542 ft 6 kts 354°
2026-04-17 00:18 6.05692 125.09891 542 ft 3 kts 42°
2026-04-17 00:18 6.05702 125.09914 542 ft 4 kts 76°
2026-04-17 00:19 6.05708 125.09944 541 ft 3 kts 82°
2026-04-17 00:19 6.05708 125.09950 541 ft 1 kts 82°
2026-04-17 00:19 6.05709 125.09952 541 ft 0 kts 82°